| time (UTC) | temp F | wind direction | speed knots | gust knots | rain 1hr in | rain 24hr in | rain mn in | humidity % | barometer mb |
| 20260506140007 | 43 | 311 | 5.2 | 10.4 | 0.00 | 0.02 | 0.00 | 67 | 1011.3 |
| 20260506133007 | 42 | 318 | 5.2 | 10.4 | 0.00 | 0.02 | 0.00 | 70 | 1011.2 |
| 20260506131505 | 41 | 329 | 5.2 | 11.3 | 0.00 | 0.02 | 0.00 | 71 | 1011.1 |
| 20260506130008 | 41 | 343 | 6.1 | 12.2 | 0.00 | 0.02 | 0.00 | 72 | 1010.9 |
| 20260506124504 | 40 | 330 | 5.2 | 11.3 | 0.00 | 0.02 | 0.00 | 75 | 1010.8 |
| 20260506123007 | 40 | 325 | 6.1 | 13.0 | 0.00 | 0.02 | 0.00 | 76 | 1010.6 |
| 20260506121504 | 40 | 327 | 5.2 | 13.0 | 0.00 | 0.02 | 0.00 | 77 | 1010.5 |
| 20260506113007 | 38 | 304 | 2.6 | 6.1 | 0.00 | 0.02 | 0.00 | 81 | 1010.0 |
| 20260506111504 | 38 | 315 | 2.6 | 7.8 | 0.00 | 0.02 | 0.00 | 82 | 1009.6 |
| 20260506104504 | 37 | 332 | 3.5 | 7.8 | 0.00 | 0.02 | 0.00 | 81 | 1009.1 |
| 20260506103007 | 38 | 330 | 3.5 | 7.0 | 0.00 | 0.02 | 0.00 | 81 | 1008.9 |
| 20260506101505 | 38 | 331 | 3.5 | 8.7 | 0.00 | 0.02 | 0.00 | 80 | 1008.5 |
| 20260506100009 | 39 | 341 | 4.3 | 10.4 | 0.00 | 0.02 | 0.00 | 80 | 1008.3 |
| 20260506094504 | 39 | 333 | 3.5 | 9.6 | 0.00 | 0.02 | 0.00 | 82 | 1008.6 |
| 20260506093008 | 40 | 329 | 3.5 | 8.7 | 0.00 | 0.02 | 0.00 | 81 | 1008.6 |
| 20260506091504 | 40 | 326 | 2.6 | 10.4 | 0.00 | 0.02 | 0.00 | 81 | 1008.3 |
| 20260506083008 | 42 | 339 | 3.5 | 7.0 | 0.00 | 0.02 | 0.00 | 74 | 1008.3 |
| 20260506081504 | 42 | 312 | 2.6 | 7.8 | 0.00 | 0.02 | 0.00 | 74 | 1008.2 |
| 20260506073008 | 42 | 312 | 2.6 | 5.2 | 0.00 | 0.02 | 0.00 | 78 | 1008.0 |
| 20260506071505 | 43 | 309 | 2.6 | 6.1 | 0.00 | 0.02 | 0.00 | 79 | 1007.8 |
| 20260506044505 | 48 | 263 | 1.7 | 7.0 | 0.00 | 0.02 | 0.00 | 66 | 1007.2 |
| 20260506041505 | 48 | 284 | 1.7 | 2.6 | 0.00 | 0.02 | 0.00 | 64 | 1007.3 |
| 20260506040040 | 48 | 285 | 1.7 | 3.5 | 0.00 | 0.02 | 0.00 | 65 | 1007.4 |
| 20260506033007 | 49 | 247 | 1.7 | 4.3 | 0.00 | 0.02 | 0.02 | 61 | 1007.2 |
| 20260506031504 | 49 | 244 | 1.7 | 4.3 | 0.00 | 0.02 | 0.02 | 60 | 1007.1 |
| 20260506030008 | 50 | 241 | 1.7 | 4.3 | 0.00 | 0.02 | 0.02 | 59 | 1007.4 |
| 20260506024504 | 51 | 234 | 2.6 | 6.1 | 0.00 | 0.02 | 0.02 | 57 | 1007.3 |
| 20260506023007 | 51 | 238 | 1.7 | 5.2 | 0.00 | 0.02 | 0.02 | 57 | 1007.3 |
| 20260506020007 | 52 | 238 | 2.6 | 7.0 | 0.00 | 0.02 | 0.02 | 55 | 1007.0 |
| 20260506014504 | 52 | 250 | 2.6 | 6.1 | 0.00 | 0.02 | 0.02 | 53 | 1006.9 |
| 20260506013007 | 53 | 224 | 2.6 | 7.8 | 0.00 | 0.02 | 0.02 | 52 | 1006.7 |
| 20260506011504 | 53 | 224 | 2.6 | 7.0 | 0.00 | 0.02 | 0.02 | 52 | 1006.6 |
| 20260506010007 | 53 | 227 | 2.6 | 6.1 | 0.00 | 0.02 | 0.02 | 52 | 1006.7 |
| 20260506003007 | 54 | 224 | 2.6 | 7.0 | 0.00 | 0.02 | 0.02 | 53 | 1006.5 |
| 20260506001505 | 54 | 225 | 2.6 | 6.1 | 0.00 | 0.02 | 0.02 | 54 | 1006.2 |
| 20260506000007 | 54 | 219 | 2.6 | 5.2 | 0.00 | 0.02 | 0.02 | 56 | 1006.1 |
| 20260505234505 | 54 | 218 | 2.6 | 7.8 | 0.00 | 0.02 | 0.02 | 56 | 1005.8 |
| 20260505233006 | 55 | 223 | 2.6 | 9.6 | 0.00 | 0.02 | 0.02 | 58 | 1005.8 |
| 20260505231505 | 55 | 224 | 3.5 | 8.7 | 0.00 | 0.02 | 0.02 | 59 | 1005.8 |
| 20260505230008 | 55 | 233 | 2.6 | 8.7 | 0.00 | 0.02 | 0.02 | 59 | 1005.9 |
| 20260505224504 | 55 | 227 | 3.5 | 9.6 | 0.00 | 0.02 | 0.02 | 59 | 1005.9 |
| 20260505223007 | 56 | 220 | 4.3 | 11.3 | 0.00 | 0.02 | 0.02 | 60 | 1005.9 |
| 20260505221505 | 56 | 218 | 2.6 | 7.0 | 0.00 | 0.02 | 0.02 | 64 | 1005.9 |
| 20260505214504 | 56 | 212 | 2.6 | 10.4 | 0.00 | 0.02 | 0.02 | 66 | 1006.0 |
| 20260505213007 | 56 | 229 | 4.3 | 7.8 | 0.00 | 0.02 | 0.02 | 66 | 1006.1 |
| 20260505211504 | 56 | 221 | 3.5 | 9.6 | 0.00 | 0.02 | 0.02 | 66 | 1006.1 |
| 20260505210008 | 56 | 225 | 3.5 | 9.6 | 0.00 | 0.02 | 0.02 | 67 | 1005.9 |
| 20260505204504 | 56 | 227 | 3.5 | 10.4 | 0.00 | 0.02 | 0.02 | 68 | 1006.1 |
| 20260505203008 | 55 | 215 | 3.5 | 9.6 | 0.00 | 0.02 | 0.02 | 67 | 1006.1 |
| 20260505201505 | 56 | 227 | 2.6 | 8.7 | 0.00 | 0.02 | 0.02 | 69 | 1006.2 |
| 20260505194504 | 55 | 229 | 3.5 | 11.3 | 0.00 | 0.02 | 0.02 | 68 | 1006.4 |
| 20260505193009 | 55 | 231 | 4.3 | 8.7 | 0.00 | 0.02 | 0.02 | 70 | 1006.2 |
| 20260505191504 | 55 | 228 | 3.5 | 10.4 | 0.00 | 0.02 | 0.02 | 70 | 1006.4 |
| 20260505184505 | 54 | 216 | 1.7 | 7.8 | 0.00 | 0.02 | 0.02 | 73 | 1006.2 |
| 20260505183008 | 53 | 221 | 1.7 | 10.4 | 0.00 | 0.02 | 0.02 | 76 | 1006.0 |
| 20260505180007 | 53 | 230 | 2.6 | 6.1 | 0.00 | 0.02 | 0.02 | 75 | 1005.9 |
| 20260505174504 | 52 | 219 | 1.7 | 6.1 | 0.00 | 0.02 | 0.02 | 75 | 1006.2 |
| 20260505173007 | 51 | 223 | 1.7 | 5.2 | 0.00 | 0.02 | 0.02 | 75 | 1006.1 |
| 20260505171504 | 50 | 296 | 0.9 | 3.5 | 0.00 | 0.02 | 0.02 | 77 | 1005.8 |
| 20260505170007 | 49 | 300 | 0.9 | 2.6 | 0.00 | 0.02 | 0.02 | 78 | 1005.9 |
| 20260505164504 | 49 | 300 | 0.9 | 3.5 | 0.01 | 0.02 | 0.02 | 76 | 1006.0 |
| 20260505161504 | 48 | 300 | 0.0 | 1.7 | 0.02 | 0.02 | 0.02 | 81 | 1005.9 |
| 20260505153007 | 49 | 301 | 0.9 | 1.7 | 0.01 | 0.01 | 0.01 | 75 | 1006.1 |
| 20260505151504 | 49 | 301 | 0.9 | 2.6 | 0.00 | 0.00 | 0.00 | 72 | 1005.9 |